SCP
-0 -0 -0 0 0 0 0 0 0 0 0 0 0 0 0 0 0 0 0 0 0 0 0 0 0 0 0 0 0 0 0 0
0 -0 -0 -0 0 0 0 0 0 0 0 0 0 0 0 0 0 0 0 0 0 0 0 0 0 0 0 0 0 0 0 0
0 0 0 0 0 0 0 0 0 0 -0 -0 0 0 0 0 0 0 0 0 0 0 0 0 0 0 0 0 0 0 0 0
0 0 0 0 0 0 0 0 0 0 0 0 0 0 0 0 0 0 0 0 0 0 0 0 0 0 0 0 0 0 0 0
0 0 0 0 0 0 0 0 0 0 0 0 0 0 0 0 0 0 0 0 0 0 0 0 0 0 0 0 0 0 0 0
0 0 0 0 0 0 0 0 0 0 0 0 0 0 0 -0 -0 -0 0 0 0 0 0 0 0 0 0 0 0 0 0 0
0 0 0 0 0 0 0 0 0 0 0 0 0 0 0 0 -0 -0 -0 0 0 0 0 0 0 0 0 0 0 0 0 0
0 -0 -0 -0 -0 -0 -0 0 0 0 -0 -0 0 0 0 0 0 0 0 0 0 0 0 0 0 0 0 0 0 0 0 0
-0 -0 -0 -0 -0 -0 -0 -0 -0 0 0 0 0 0 0 0 0 0 0 0 0 0 0 0 0 0 0 0 0 0 0 0
-0 -0 -0 -0 -0 -0 -0 -0 -0 -0 -0 0 0 0 0 0 0 0 0 0 0 0 0 0 0 0 0 0 0 0 0 0
0 0 0 0 -0 -0 -0 -0 -0 -0 -0 -0 0 0 0 0 0 0 0 0 0 0 0 0 0 0 0 0 0 0 0 0
0 0 0 0 0 0 0 0 -0 -0 -0 -0 -0 -0 0 0 0 0 0 0 0 0 0 0 0 0 0 0 0 0 0 0
0 0 0 0 0 0 0 0 0 0 -0 -0 -0 -0 -0 -0 -0 -0 0 0 0 0 0 0 0 0 0 0 0 0 0 0
0 0 0 0 0 0 0 0 0 0 -0 -0 -0 -0 -0 -0 -0 -0 -0 0 0 0 0 0 0 0 0 0 0 0 0 0
0 0 0 0 0 0 0 0 0 0 0 -0 -0 -0 -0 -0 -0 -0 -0 -0 0 0 0 0 0 0 0 0 0 0 0 0
0 0 0 0 0 0 0 0 0 0 0 0 -0 -0 -0 0 0 0 0 -0 0 0 0 0 0 0 0 0 0 0 0 0
0 0 0 0 0 0 0 0 0 0 0 0 0 0 0 -0 -0 0 -0 -0 -0 0 0 0 0 0 0 -0 0 0 0 0
0 0 0 0 0 0 0 0 0 0 0 0 0 0 0 0 0 0 -0 0 0 0 0 0 0 0 -0 0 -0 0 0 0
0 0 0 0 0 0 0 0 0 0 0 0 0 0 0 0 0 0 0 0 0 0 0 0 0 0 -0 -0 0 0 0 0
0 -0 -0 0 0 0 0 0 0 0 0 0 0 0 0 0 0 0 0 0 0 0 0 0 0 0 0 0 0 0 0 0
Wind_Speed_500mb
60 56 53 49 45 46 44 45 42 36 35 36 41 46 55 62 67 72 77 82 82 80 83 93 99 101 103 104 102 99 96 91
60 60 58 57 56 51 49 47 47 45 45 43 38 41 45 55 61 68 73 80 83 83 87 89 94 101 106 110 108 107 104 98
52 55 60 63 60 62 59 54 54 52 47 46 47 44 44 48 52 59 68 74 84 87 91 95 96 99 104 113 115 114 113 106
56 60 63 66 67 63 62 64 58 53 56 54 53 55 52 49 50 52 55 66 75 86 91 98 101 102 105 111 120 120 118 114
45 49 55 62 66 69 68 65 67 62 56 60 61 61 64 62 57 58 56 57 68 82 89 95 100 104 106 108 118 124 126 119
47 43 50 57 62 66 67 67 68 69 65 62 61 62 62 65 66 60 60 61 61 70 83 97 99 102 109 110 114 124 128 124
49 44 51 57 62 65 67 67 68 69 70 66 64 63 65 68 69 67 67 64 62 70 77 90 102 101 105 108 109 117 121 130
52 46 56 57 55 61 64 67 69 72 76 78 74 69 66 66 67 67 67 70 67 69 71 85 94 96 102 106 111 114 115 123
58 56 62 55 56 59 57 61 65 68 73 77 83 84 78 75 74 68 67 67 71 64 66 72 83 84 91 98 105 107 111 117
60 65 73 69 65 67 65 63 67 73 78 79 82 87 93 90 86 80 73 66 66 72 66 66 73 78 80 85 106 100 106 116
64 73 81 79 78 78 78 80 81 83 82 86 89 89 93 95 97 91 82 77 68 68 75 68 66 69 75 79 86 101 107 116
70 79 85 83 84 88 89 89 87 88 93 97 95 100 100 100 101 101 90 83 80 73 67 77 66 64 65 74 87 99 109 113
78 87 92 90 93 96 99 98 96 100 99 98 99 106 111 110 107 102 100 88 84 83 74 74 72 65 65 73 78 101 102 106
91 98 100 97 97 99 107 106 111 113 115 115 113 107 110 117 116 108 99 96 87 80 80 76 75 70 62 64 75 102 105 92
86 97 107 106 105 105 111 110 114 122 127 127 127 124 116 112 115 107 97 87 87 81 83 78 79 74 66 59 61 91 87 84
84 86 101 102 112 110 105 107 119 125 129 128 123 120 116 110 108 106 100 77 80 80 77 77 79 82 63 51 64 84 93 85
96 90 99 99 107 103 104 104 109 115 113 103 99 100 101 102 108 103 89 70 72 74 70 78 72 67 69 39 56 75 94 84
94 96 101 103 104 100 96 90 90 92 95 93 87 87 86 84 82 92 96 71 62 66 64 73 71 68 56 43 42 75 83 96
86 91 92 92 93 91 87 85 84 83 83 85 86 84 80 75 77 74 77 76 61 56 56 60 65 68 53 44 44 74 83 94
86 86 85 87 90 82 78 78 77 77 79 78 79 78 79 77 79 79 74 75 70 62 58 45 60 53 62 45 60 73 89 87
Wind_Direction_500mb
15 13 14 14 11 9 8 6 359 340 324 313 309 300 292 283 277 268 264 258 253 249 245 241 239 237 235 233 232 231 230 231
356 360 0 358 1 5 1 357 355 354 346 330 315 302 293 289 287 280 270 263 258 253 248 244 240 237 237 237 235 233 231 230
356 350 352 351 347 352 354 353 353 353 348 344 333 314 302 296 290 282 277 271 263 257 252 248 243 240 237 237 237 234 232 231
359 358 355 356 355 350 348 347 346 343 344 342 341 336 324 303 293 288 285 278 269 261 254 252 248 244 240 238 238 237 235 234
359 351 347 348 347 346 348 347 344 344 339 341 342 339 337 329 311 296 287 279 276 269 263 258 253 249 246 242 240 239 237 234
350 348 336 339 338 340 340 341 341 339 340 340 336 335 334 334 330 316 294 286 279 273 268 263 255 251 246 243 242 241 239 238
341 341 334 335 335 333 334 338 336 334 336 334 334 330 323 323 328 329 321 300 286 279 274 268 260 255 250 245 243 243 242 242
327 325 324 328 330 329 332 331 332 334 335 333 333 329 326 320 315 318 322 319 300 283 277 273 269 261 256 252 246 242 242 243
317 316 317 316 319 321 324 326 327 327 328 330 332 330 326 323 319 314 309 311 311 297 283 275 272 270 263 257 251 246 245 245
310 312 314 312 315 316 315 317 320 323 324 325 327 325 326 325 321 315 309 301 301 304 296 282 275 271 266 260 253 246 245 244
307 310 311 310 313 312 311 312 312 315 316 317 319 319 319 321 320 316 313 304 295 297 299 291 280 271 266 260 249 250 244 241
305 308 309 305 306 305 305 304 307 306 308 310 311 311 313 314 315 314 312 306 297 289 288 293 285 275 265 250 239 246 242 241
303 305 305 302 302 302 301 305 305 303 301 300 302 305 307 308 309 309 307 303 297 292 286 284 289 279 263 251 240 240 244 244
305 305 303 303 303 300 300 302 301 301 300 299 299 297 298 301 302 304 303 299 295 288 283 281 283 283 269 256 235 231 237 242
303 302 302 302 301 298 300 299 298 298 297 297 297 295 293 293 295 297 296 292 290 288 281 281 279 276 276 252 232 228 226 232
302 299 297 298 297 296 296 296 296 296 296 295 296 295 294 290 288 288 287 281 279 278 278 276 275 275 277 267 230 221 221 229
305 300 298 297 295 295 295 294 294 295 295 295 294 293 292 290 287 282 284 279 266 264 263 271 275 277 274 263 239 220 221 215
308 305 304 303 302 305 304 302 299 297 297 295 292 291 290 289 286 287 285 282 267 261 261 259 262 267 268 261 232 214 218 213
319 319 317 314 310 315 312 308 303 301 298 295 292 289 287 282 281 281 284 287 281 267 264 254 248 247 253 238 218 207 204 206
327 324 318 311 311 319 315 309 306 304 301 300 297 291 287 283 279 281 280 276 272 267 270 261 240 234 237 231 214 208 198 204
Wind_Speed_850mb
60 56 53 49 45 46 44 45 42 36 35 36 41 46 55 62 67 72 77 82 82 80 83 93 99 101 103 104 102 99 96 91
60 60 58 57 56 51 49 47 47 45 45 43 38 41 45 55 61 68 73 80 83 83 87 89 94 101 106 110 108 107 104 98
52 55 60 63 60 62 59 54 54 52 47 46 47 44 44 48 52 59 68 74 84 87 91 95 96 99 104 113 115 114 113 106
56 60 63 66 67 63 62 64 58 53 56 54 53 55 52 49 50 52 55 66 75 86 91 98 101 102 105 111 120 120 118 114
45 49 55 62 66 69 68 65 67 62 56 60 61 61 64 62 57 58 56 57 68 82 89 95 100 104 106 108 118 124 126 119
47 43 50 57 62 66 67 67 68 69 65 62 61 62 62 65 66 60 60 61 61 70 83 97 99 102 109 110 114 124 128 124
49 44 51 57 62 65 67 67 68 69 70 66 64 63 65 68 69 67 67 64 62 70 77 90 102 101 105 108 109 117 121 130
52 46 56 57 55 61 64 67 69 72 76 78 74 69 66 66 67 67 67 70 67 69 71 85 94 96 102 106 111 114 115 123
58 56 62 55 56 59 57 61 65 68 73 77 83 84 78 75 74 68 67 67 71 64 66 72 83 84 91 98 105 107 111 117
60 65 73 69 65 67 65 63 67 73 78 79 82 87 93 90 86 80 73 66 66 72 66 66 73 78 80 85 106 100 106 116
64 73 81 79 78 78 78 80 81 83 82 86 89 89 93 95 97 91 82 77 68 68 75 68 66 69 75 79 86 101 107 116
70 79 85 83 84 88 89 89 87 88 93 97 95 100 100 100 101 101 90 83 80 73 67 77 66 64 65 74 87 99 109 113
78 87 92 90 93 96 99 98 96 100 99 98 99 106 111 110 107 102 100 88 84 83 74 74 72 65 65 73 78 101 102 106
91 98 100 97 97 99 107 106 111 113 115 115 113 107 110 117 116 108 99 96 87 80 80 76 75 70 62 64 75 102 105 92
86 97 107 106 105 105 111 110 114 122 127 127 127 124 116 112 115 107 97 87 87 81 83 78 79 74 66 59 61 91 87 84
84 86 101 102 112 110 105 107 119 125 129 128 123 120 116 110 108 106 100 77 80 80 77 77 79 82 63 51 64 84 93 85
96 90 99 99 107 103 104 104 109 115 113 103 99 100 101 102 108 103 89 70 72 74 70 78 72 67 69 39 56 75 94 84
94 96 101 103 104 100 96 90 90 92 95 93 87 87 86 84 82 92 96 71 62 66 64 73 71 68 56 43 42 75 83 96
86 91 92 92 93 91 87 85 84 83 83 85 86 84 80 75 77 74 77 76 61 56 56 60 65 68 53 44 44 74 83 94
86 86 85 87 90 82 78 78 77 77 79 78 79 78 79 77 79 79 74 75 70 62 58 45 60 53 62 45 60 73 89 87
Wind_Direction_850mb
15 13 14 14 11 9 8 6 359 340 324 313 309 300 292 283 277 268 264 258 253 249 245 241 239 237 235 233 232 231 230 231
356 360 0 358 1 5 1 357 355 354 346 330 315 302 293 289 287 280 270 263 258 253 248 244 240 237 237 237 235 233 231 230
356 350 352 351 347 352 354 353 353 353 348 344 333 314 302 296 290 282 277 271 263 257 252 248 243 240 237 237 237 234 232 231
359 358 355 356 355 350 348 347 346 343 344 342 341 336 324 303 293 288 285 278 269 261 254 252 248 244 240 238 238 237 235 234
359 351 347 348 347 346 348 347 344 344 339 341 342 339 337 329 311 296 287 279 276 269 263 258 253 249 246 242 240 239 237 234
350 348 336 339 338 340 340 341 341 339 340 340 336 335 334 334 330 316 294 286 279 273 268 263 255 251 246 243 242 241 239 238
341 341 334 335 335 333 334 338 336 334 336 334 334 330 323 323 328 329 321 300 286 279 274 268 260 255 250 245 243 243 242 242
327 325 324 328 330 329 332 331 332 334 335 333 333 329 326 320 315 318 322 319 300 283 277 273 269 261 256 252 246 242 242 243
317 316 317 316 319 321 324 326 327 327 328 330 332 330 326 323 319 314 309 311 311 297 283 275 272 270 263 257 251 246 245 245
310 312 314 312 315 316 315 317 320 323 324 325 327 325 326 325 321 315 309 301 301 304 296 282 275 271 266 260 253 246 245 244
307 310 311 310 313 312 311 312 312 315 316 317 319 319 319 321 320 316 313 304 295 297 299 291 280 271 266 260 249 250 244 241
305 308 309 305 306 305 305 304 307 306 308 310 311 311 313 314 315 314 312 306 297 289 288 293 285 275 265 250 239 246 242 241
303 305 305 302 302 302 301 305 305 303 301 300 302 305 307 308 309 309 307 303 297 292 286 284 289 279 263 251 240 240 244 244
305 305 303 303 303 300 300 302 301 301 300 299 299 297 298 301 302 304 303 299 295 288 283 281 283 283 269 256 235 231 237 242
303 302 302 302 301 298 300 299 298 298 297 297 297 295 293 293 295 297 296 292 290 288 281 281 279 276 276 252 232 228 226 232
302 299 297 298 297 296 296 296 296 296 296 295 296 295 294 290 288 288 287 281 279 278 278 276 275 275 277 267 230 221 221 229
305 300 298 297 295 295 295 294 294 295 295 295 294 293 292 290 287 282 284 279 266 264 263 271 275 277 274 263 239 220 221 215
308 305 304 303 302 305 304 302 299 297 297 295 292 291 290 289 286 287 285 282 267 261 261 259 262 267 268 261 232 214 218 213
319 319 317 314 310 315 312 308 303 301 298 295 292 289 287 282 281 281 284 287 281 267 264 254 248 247 253 238 218 207 204 206
327 324 318 311 311 319 315 309 306 304 301 300 297 291 287 283 279 281 280 276 272 267 270 261 240 234 237 231 214 208 198 204